IZ1CYF-13 Weather Reports


time (UTC)temp
C
wind
direction
speed
KPH
gust
KPH
rain 1hr
cm
rain 24hr
cm
rain mn
cm
humidity
%
barometer
mb
20260506203844 17 0.0 0.0 0.00 0.00 0.00 61 1011.6
20260506202844 19 0.0 0.0 0.00 0.00 0.00 54 1010.8
20260506201851 20 0.0 0.0 0.00 0.00 0.00 53 1010.7
20260506200915 18 0.0 0.0 0.00 0.00 0.00 58 1010.9
20260506195848 18 0.0 0.0 0.00 0.00 0.00 58 1010.6
20260506194848 19 0.0 0.0 0.00 0.00 0.00 53 1009.9
20260506193848 19 0.0 0.0 0.00 0.00 0.00 54 1009.6
20260506192916 18 0.0 0.0 0.00 0.00 0.00 56 1009.7
20260506191844 16 0.0 0.0 0.00 0.00 0.00 62 1009.7
20260506190848 17 0.0 0.0 0.00 0.00 0.00 58 1009.1
20260506185848 17 0.0 0.0 0.00 0.00 0.00 60 1009.1
20260506184915 17 0.0 0.0 0.00 0.00 0.00 59 1009.1
20260506183848 17 0.0 0.0 0.00 0.00 0.00 58 1008.9
20260506182845 18 0.0 0.0 0.00 0.00 0.00 54 1008.2
20260506180845 18 0.0 0.0 0.00 0.00 0.00 55 1007.9
20260506175844 20 0.0 0.0 0.00 0.00 0.00 53 1007.4
20260506174844 20 0.0 0.0 0.00 0.00 0.00 53 1007.2
20260506173844 20 0.0 0.0 0.00 0.00 0.00 50 1007.0
20260506172844 18 0.0 0.0 0.00 0.00 0.00 56 1007.3
20260506171844 19 0.0 0.0 0.00 0.00 0.00 54 1006.9
20260506170845 19 0.0 0.0 0.00 0.00 0.00 54 1006.9
20260506165845 20 0.0 0.0 0.00 0.00 0.00 52 1006.8
20260506164844 22 0.0 0.0 0.00 0.00 0.00 46 1006.3
20260506163845 19 0.0 0.0 0.00 0.00 0.00 52 1006.8
20260506162845 19 0.0 0.0 0.00 0.00 0.00 52 1006.8
20260506161846 20 0.0 0.0 0.00 0.00 0.00 48 1006.6
20260506160849 20 0.0 0.0 0.00 0.00 0.00 48 1006.3
20260506155844 21 0.0 0.0 0.00 0.00 0.00 46 1006.2
20260506154845 21 0.0 0.0 0.00 0.00 0.00 47 1006.3
20260506153901 21 0.0 0.0 0.00 0.00 0.00 49 1006.3
20260506151849 19 0.0 0.0 0.00 0.00 0.00 53 1006.6
20260506150845 20 0.0 0.0 0.00 0.00 0.00 51 1006.4
20260506145900 20 0.0 0.0 0.00 0.00 0.00 52 1006.5
20260506144845 20 0.0 0.0 0.00 0.00 0.00 53 1006.5
20260506143901 21 0.0 0.0 0.00 0.00 0.00 49 1006.2
20260506142845 20 0.0 0.0 0.00 0.00 0.00 54 1006.5
20260506141848 20 0.0 0.0 0.00 0.00 0.00 50 1006.4
20260506140845 21 0.0 0.0 0.00 0.00 0.00 49 1006.2
20260506135846 21 0.0 0.0 0.00 0.00 0.00 45 1006.3
20260506134849 22 0.0 0.0 0.00 0.00 0.00 42 1006.1
20260506133905 20 0.0 0.0 0.00 0.00 0.00 44 1006.6
20260506132927 21 0.0 0.0 0.00 0.00 0.00 43 1006.4
20260506130900 21 0.0 0.0 0.00 0.00 0.00 45 1006.4
20260506125904 21 0.0 0.0 0.00 0.00 0.00 45 1006.5
20260506124849 22 0.0 0.0 0.00 0.00 0.00 45 1006.4
20260506123849 20 0.0 0.0 0.00 0.00 0.00 45 1006.7
20260506122849 21 0.0 0.0 0.00 0.00 0.00 47 1006.6
20260506121901 21 0.0 0.0 0.00 0.00 0.00 46 1006.7
20260506120849 20 0.0 0.0 0.00 0.00 0.00 48 1006.9
20260506115849 20 0.0 0.0 0.00 0.00 0.00 47 1007.0
20260506114849 21 0.0 0.0 0.00 0.00 0.00 44 1006.7
20260506113845 20 0.0 0.0 0.00 0.00 0.00 46 1007.0
20260506112849 19 0.0 0.0 0.00 0.00 0.00 46 1007.3
20260506111850 20 0.0 0.0 0.00 0.00 0.00 47 1007.1
20260506110846 18 0.0 0.0 0.00 0.00 0.00 51 1007.7
20260506105904 20 0.0 0.0 0.00 0.00 0.00 49 1007.5
20260506104904 20 0.0 0.0 0.00 0.00 0.00 49 1007.6
20260506103846 18 0.0 0.0 0.00 0.00 0.00 51 1008.0
20260506102849 21 0.0 0.0 0.00 0.00 0.00 46 1007.6
20260506101849 21 0.0 0.0 0.00 0.00 0.00 46 1007.6
20260506100846 21 0.0 0.0 0.00 0.00 0.00 45 1007.8
20260506095849 21 0.0 0.0 0.00 0.00 0.00 43 1007.7
20260506094849 20 0.0 0.0 0.00 0.00 0.00 48 1008.1
20260506093905 19 0.0 0.0 0.00 0.00 0.00 49 1008.2
20260506092849 21 0.0 0.0 0.00 0.00 0.00 43 1007.9
20260506091845 21 0.0 0.0 0.00 0.00 0.00 44 1007.9
20260506090845 20 0.0 0.0 0.00 0.00 0.00 44 1008.1
20260506085846 20 0.0 0.0 0.00 0.00 0.00 44 1008.0
20260506084849 19 0.0 0.0 0.00 0.00 0.00 45 1008.2
20260506083846 21 0.0 0.0 0.00 0.00 0.00 43 1007.8
20260506082846 20 0.0 0.0 0.00 0.00 0.00 43 1007.8
20260506081920 20 0.0 0.0 0.00 0.00 0.00 44 1007.9
20260506080846 19 0.0 0.0 0.00 0.00 0.00 45 1008.0
20260506072846 20 0.0 0.0 0.00 0.00 0.00 44 1008.2
20260506071840 20 0.0 0.0 0.00 0.00 0.00 44 1008.2
20260506070855 18 0.0 0.0 0.00 0.00 0.00 48 1008.5
20260506061934 17 0.0 0.0 0.00 0.00 0.00 50 1009.5
20260506060850 19 0.0 0.0 0.00 0.00 0.00 47 1008.9
20260506050846 18 0.0 0.0 0.00 0.00 0.00 55 1009.5
20260506010902 17 0.0 0.0 0.00 0.00 0.00 58 1011.4
20260506003903 18 0.0 0.0 0.00 0.00 0.00 56 1011.9
20260505210911 18 0.0 0.0 0.00 0.00 0.00 53 1013.6
20260505204847 19 0.0 0.0 0.00 0.00 0.00 52 1013.3